Regional Weather Roundup
Issued by NWS

Home | Current Version | Previous Version | Graphics & Text | Print | Product List | Glossary Off
Versions: 1 2 3 4 5 6 7 8 9 10 11 12 13 14 15 16 17 18 19 20 21 22 23 24 25 26 27 28 29 30 31 32 33 34 35 36 37 38 39 40 41 42 43 44 45 46 47 48 49 50

000
ASUS43 KDMX 171107
RWRIA

WEATHER ROUNDUP FOR IOWA
NATIONAL WEATHER SERVICE DES MOINES IA
600 AM CDT FRI APR 17 2015

NOTE: "FAIR" INDICATES FEW OR NO CLOUDS BELOW 12,000 FEET WITH NO
SIGNIFICANT WEATHER AND/OR OBSTRUCTIONS TO VISIBILITY.

* - THESE STATIONS ARE NOT NWS STATIONS...THUS NOT UNDER NWS
QUALITY CONTROL.  THEY ALSO DO NOT REPORT WEATHER SUCH
AS PRECIPITATION OR FOG.

IAZ001>003-012>014-020>022-031>034-043>046-171200-
   NORTHWEST IOWA

CITY           SKY/WX    TMP DP  RH WIND       PRES   REMARKS
CARROLL *      CLOUDY    48  46  93 NW5       30.11R
CHEROKEE *     PTCLDY    45  45 100 CALM      30.12R FOG
DENISON *      MOCLDY    48  48 100 CALM      30.09S FOG
LE MARS *      CLEAR     45  45 100 CALM      30.13S FOG
ORANGE CITY *  CLEAR     52  46  82 NE6       30.11S
SHELDON *      CLEAR     46  45  93 NE5       30.11R
SIOUX CITY     MOCLDY    48  44  86 W7        30.12R
SPENCER        CLEAR     45  42  89 N5        30.11R
STORM LAKE *   CLEAR     54  46  76 N6        30.12S
$$

IAZ055>058-069>071-079>083-090>094-171200-
   SOUTHWEST IOWA

CITY           SKY/WX    TMP DP  RH WIND       PRES   REMARKS
ATLANTIC *     PTCLDY    46  46 100 N6        30.09F
AUDUBON *      CLEAR     46  43  87 CALM      30.11S
CLARINDA *     CLEAR     50  50 100 N6        30.10R
COUNCIL BLFS * CLOUDY    54  54 100 N6        30.09S
CRESTON *      CLEAR     54  52  94 CALM      30.09R
HARLAN  *      FOG       50  50 100 N6        30.14R VSB 1/2
LAMONI         PTCLDY    55  51  86 N3        30.08R
RED OAK *      CLEAR     52  52 100 CALM      30.09R
SHENANDOAH *   CLEAR     50  50 100 CALM      30.09R
$$

IAZ047>049-059>061-072>074-084-171200-
   CENTRAL IOWA

CITY           SKY/WX    TMP DP  RH WIND       PRES   REMARKS
AMES           CLEAR     47  44  90 CALM      30.09R
ANKENY *       CLEAR     48  48 100 CALM      30.09S
CHARITON *     CLOUDY    54  50  87 N6        30.08R
DES MOINES     PTCLDY    54  49  83 NW5       30.09S
GRINNELL*      PTCLDY    50  48  93 NW6       30.09S
KNOXVILLE *    CLEAR     54  48  82 NW5       30.07S
MARSHALLTOWN   PTCLDY    49  46  90 W3        30.08R
PELLA *        PTCLDY    50  50 100 CALM      30.09S
PERRY *          N/A     46  45  93 W7        30.09F
$$

IAZ004>006-015-016-023>025-035-036-171200-
   NORTH CENTRAL IOWA

CITY           SKY/WX    TMP DP  RH WIND       PRES   REMARKS
ALGONA *       CLEAR     50  46  87 NW3       30.11R
CLARION *      CLEAR     48  48 100 N7        30.10S
ESTHERVILLE    CLEAR     47  42  83 NW8       30.11R
FORT DODGE *   CLEAR     46  39  76 CALM      30.11R
MASON CITY     CLEAR     45  42  89 W6        30.11R
FOREST CITY *  CLEAR     41  41 100 CALM      30.09S
IOWA FALLS *     N/A     48  45  87 W3        30.10R
$$

IAZ007>011-017>019-026>030-037>042-050>054-066-171200-
   NORTHEAST IOWA

CITY           SKY/WX    TMP DP  RH WIND       PRES   REMARKS
CEDAR RAPIDS   CLEAR     49  47  93 CALM      30.07R
CHARLES CITY * CLEAR     48  48 100 N5        30.09S
CLINTON *      CLEAR     43  37  81 E3        30.10R
DECORAH *      PTCLDY    48  45  87 CALM      30.07R
DUBUQUE        CLEAR     48  43  82 CALM      30.07S
MONTICELLO *   CLEAR     46  46 100 CALM      30.08R
OELWEIN *      CLEAR     50  46  87 N3        30.08R
WATERLOO       CLEAR     46  43  89 CALM      30.08R
$$

IAZ064-065-067-068-078-171200-
   EAST CENTRAL IOWA

CITY           SKY/WX    TMP DP  RH WIND       PRES   REMARKS
DAVENPORT      CLEAR     47  39  74 CALM      30.08R
IOWA CITY      CLEAR     48  45  89 CALM      30.09R
MT. PLEASANT * CLEAR     52  46  82 CALM      30.09R
MUSCATINE *    CLEAR     50  46  87 CALM      30.08S
QUAD CITIES    CLEAR     47  42  83 CALM      30.07R
$$

IAZ062-063-075>077-085>089-095>099-171200-
   SOUTHEAST IOWA

CITY           SKY/WX    TMP DP  RH WIND       PRES   REMARKS
BURLINGTON     PTCLDY    52  47  83 CALM      30.08R
FAIRFIELD *    PTCLDY    50  46  87 N5        30.08R
FORT MADISON * PTCLDY    54  48  82 CALM      30.09R
KEOKUK *       CLOUDY    55  52  88 CALM      30.07S
OSKALOOSA *      N/A     50  46  87 N6        30.08R
CENTERVILLE *  PTCLDY    50  50 100 CALM      30.10R
OTTUMWA        CLEAR     51  48  89 NE3       30.08R
WASHINGTON *   CLEAR     52  52 100 CALM      30.08R
$$

ABBREVIATIONS USED IN REMARKS
   TC - TEMPERATURES IN CELSIUS
  WCI - WIND CHILL INDEX
   HX - HEAT INDEX
  VSB - VISIBILITY
$$



USA.gov is the U.S. government's official web portal to all federal, state and local government web resources and services.